Weather History for Nuiqsut, AK

Change the Weather History Date:

Friday, September 13, 2013

  Actual Average (PAKU) Record (PAKU)
Temperature  
Mean Temperature 39 °F -  
Max Temperature 46 °F 37 °F 57 °F (1983)
Min Temperature 33 °F 30 °F 19 °F (1992)
Degree Days  
Heating Degree Days 26    
Moisture  
Dew Point 36 °F    
Average Humidity 93    
Maximum Humidity 100    
Minimum Humidity 71    
Precipitation  
Precipitation 0.00 in - - ()
Sea Level Pressure  
Sea Level Pressure 29.79 in    
Wind  
Wind Speed 9 mph (SE)    
Max Wind Speed 20 mph    
Max Gust Speed 25 mph    
Visibility 8 miles    
Events Rain    
Averages and records for this station are not official NWS values.
T = Trace of Precipitation, MM = Missing Value Source: NWS Daily Summary

Daily Weather History Graph

Daily Weather History Graph

Search for Another Location

Airport:

Trip Planner

Search our weather history database for the weather conditions in past years. The results will help you decide how hot, cold, wet, or windy it might be!

Date:

Astronomy

Sep. 13, 2013 Rise Set
Actual Time 7:09 AM AKDT 8:47 PM AKDT
Civil Twilight 6:04 AM AKDT 9:52 PM AKDT
Nautical Twilight 4:30 AM AKDT 11:23 PM AKDT
Astronomical Twilight 2:32 AM AKDT 1:27 AM AKDT
Moon 7:52 PM AKDT (9/13) 10:53 PM AKDT (9/13)
Length of Visible Light 15h 47m
Length of Day
13h 37m
Waxing Gibbous, 63% of the Moon is Illuminated
Sep 13
Waxing Gibbous
Sep 19
Full
Sep 26
Last Quarter
Oct 4
New
Oct 11
First Quarter

Hourly Weather History & Observations

Time (AKDT) Temp. Windchill Dew Point Humidity Pressure Visibility Wind Dir Wind Speed Gust Speed Precip Events Conditions
12:04 AM 33.8 °F 27.7 °F 33.8 °F 100% 29.81 in 3.0 mi East 6.9 mph - N/A   Overcast
12:14 AM 33.8 °F 28.6 °F 33.8 °F 100% 29.81 in 1.8 mi East 5.8 mph - N/A   Overcast
12:29 AM 35.6 °F 30.7 °F 35.6 °F 100% 29.81 in 0.8 mi East 5.8 mph - N/A   Overcast
12:37 AM 35.6 °F 29.9 °F 35.6 °F 100% 29.81 in 1.8 mi East 6.9 mph - N/A   Overcast
12:39 AM 35.6 °F 29.9 °F 35.6 °F 100% 29.81 in 3.0 mi ENE 6.9 mph - N/A   Overcast
12:53 AM 35.1 °F 28.6 °F 35.1 °F 100% 29.81 in 9.0 mi ENE 8.1 mph - N/A   Overcast
1:53 AM 34.0 °F 25.5 °F 34.0 °F 100% 29.80 in 10.0 mi East 11.5 mph - N/A   Mostly Cloudy
2:03 AM 33.8 °F 24.8 °F 33.8 °F 100% 29.79 in 1.8 mi East 12.7 mph - N/A   Overcast
2:28 AM 35.6 °F 27.5 °F 35.6 °F 100% 29.78 in 3.0 mi East 11.5 mph - N/A   Overcast
2:53 AM 35.1 °F 26.9 °F 35.1 °F 100% 29.78 in 10.0 mi East 11.5 mph - N/A   Overcast
3:02 AM 35.6 °F 28.6 °F 35.6 °F 100% 29.78 in 9.0 mi East 9.2 mph - N/A   Overcast
3:13 AM 35.6 °F 28.0 °F 35.6 °F 100% 29.77 in 1.8 mi East 10.4 mph - N/A   Overcast
3:24 AM 35.6 °F 27.5 °F 35.6 °F 100% 29.77 in 2.5 mi East 11.5 mph - N/A   Overcast
3:32 AM 35.6 °F 27.5 °F 35.6 °F 100% 29.76 in 3.0 mi East 11.5 mph - N/A   Overcast
3:53 AM 36.0 °F 28.0 °F 36.0 °F 100% 29.76 in 10.0 mi ESE 11.5 mph - N/A   Overcast
4:53 AM 36.0 °F 29.0 °F 36.0 °F 100% 29.74 in 10.0 mi East 9.2 mph - N/A   Overcast
5:27 AM 35.6 °F 28.0 °F 35.6 °F 100% 29.72 in 10.0 mi East 10.4 mph - N/A   Overcast
5:53 AM 37.0 °F 30.4 °F 37.0 °F 100% 29.72 in 10.0 mi ESE 9.2 mph - N/A   Overcast
6:53 AM 37.0 °F 32.4 °F 37.0 °F 100% 29.71 in 10.0 mi ESE 5.8 mph - N/A   Mostly Cloudy
7:53 AM 37.0 °F 33.3 °F 37.0 °F 100% 29.70 in 10.0 mi SE 4.6 mph - N/A   Partly Cloudy
8:53 AM 37.9 °F 35.5 °F 37.0 °F 97% 29.71 in 10.0 mi South 3.5 mph - N/A   Partly Cloudy
9:53 AM 41.0 °F 34.3 °F 39.9 °F 96% 29.73 in 10.0 mi WSW 11.5 mph - N/A   Mostly Cloudy
10:53 AM 45.0 °F 37.1 °F 39.9 °F 82% 29.75 in 10.0 mi WSW 19.6 mph 25.3 mph N/A   Clear
11:53 AM 44.1 °F 35.9 °F 37.9 °F 79% 29.78 in 10.0 mi WSW 19.6 mph - N/A   Scattered Clouds
12:53 PM 42.1 °F 34.2 °F 37.0 °F 82% 29.79 in 10.0 mi West 16.1 mph - N/A   Clear
1:53 PM 43.0 °F 36.4 °F 36.0 °F 76% 29.81 in 10.0 mi WSW 12.7 mph - N/A   Clear
2:53 PM 45.0 °F 40.6 °F 36.0 °F 71% 29.81 in 10.0 mi WSW 8.1 mph - N/A   Scattered Clouds
3:53 PM 44.1 °F 39.5 °F 35.1 °F 71% 29.82 in 10.0 mi SW 8.1 mph - N/A   Overcast
4:53 PM 44.1 °F 40.8 °F 37.0 °F 76% 29.82 in 10.0 mi SSE 5.8 mph - N/A   Overcast
5:53 PM 44.1 °F 39.0 °F 37.0 °F 76% 29.82 in 10.0 mi South 9.2 mph - N/A   Overcast
6:53 PM 43.0 °F 37.7 °F 36.0 °F 76% 29.82 in 10.0 mi SSE 9.2 mph - N/A   Overcast
7:53 PM 42.1 °F 36.6 °F 36.0 °F 79% 29.82 in 10.0 mi South 9.2 mph - N/A   Overcast
8:53 PM 41.0 °F 34.7 °F 37.9 °F 89% 29.82 in 10.0 mi South 10.4 mph - 0.00 in   Overcast
9:53 PM 39.9 °F 33.9 °F 39.0 °F 97% 29.83 in 10.0 mi South 9.2 mph - 0.00 in Rain Light Rain
10:53 PM 39.0 °F 32.3 °F 37.9 °F 96% 29.84 in 10.0 mi South 10.4 mph - 0.00 in Rain Light Rain
11:28 PM 39.2 °F 32.5 °F 37.4 °F 93% 29.84 in 10.0 mi South 10.4 mph - 0.00 in Rain Light Rain
11:53 PM 39.0 °F 31.8 °F 37.9 °F 96% 29.85 in 10.0 mi SSW 11.5 mph - 0.00 in   Overcast